Wind_Gust
14 13 15 15 14 14 14 15 14 15 13 10 10 9 10 9 9 10 9 11 12 12 12 11 11 11 12 10 8 10 10 8 8 8 10 10 10 10 12 12 13 15
14 14 14 14 15 15 15 14 14 13 11 9 9 8 8 9 9 9 10 11 12 12 11 11 11 10 10 10 9 9 10 10 10 9 11 10 9 11 11 10 11 14
12 14 15 14 15 14 14 13 13 11 10 8 7 7 8 7 8 8 10 10 11 12 11 10 10 10 10 9 9 9 9 10 10 9 10 10 10 11 11 10 12 14
14 14 15 14 13 12 12 12 9 9 7 8 7 7 8 7 8 9 10 11 11 11 11 10 10 10 9 9 9 10 9 9 9 9 10 10 11 10 12 12 12 16
13 13 12 12 12 12 11 11 10 8 8 8 9 7 9 7 9 11 12 11 10 10 11 11 11 10 9 8 8 9 9 9 10 10 11 9 9 10 9 11 14 16
12 13 13 13 13 12 11 11 10 9 9 8 7 8 9 10 11 12 13 13 13 13 12 12 12 11 10 9 7 8 8 9 10 9 10 10 9 9 10 13 14 16
12 12 11 11 11 11 11 10 9 9 8 7 8 9 10 10 12 13 13 13 14 14 13 12 12 12 11 10 8 7 9 8 9 10 10 9 10 10 10 12 14 16
13 12 12 12 11 11 11 11 9 9 9 9 9 10 11 12 12 12 13 14 14 14 13 13 12 12 10 10 11 8 7 8 8 9 8 8 9 10 11 11 13 14
13 12 12 11 11 10 11 10 9 8 9 11 10 9 11 14 14 14 14 14 13 13 13 13 14 12 12 11 11 10 8 8 8 8 9 8 9 11 11 10 11 13
13 13 12 11 11 10 10 10 10 8 9 9 9 12 15 15 15 15 14 13 13 14 14 14 14 13 12 12 11 11 11 9 8 8 9 9 10 10 11 11 10 12
13 12 12 12 11 10 10 9 9 10 9 11 10 12 12 15 15 14 13 13 14 15 15 14 14 14 13 13 13 12 13 10 7 6 8 8 9 11 11 9 11 12
13 12 13 12 11 10 10 9 10 9 10 10 12 15 15 15 14 13 15 15 15 15 14 14 14 14 15 14 13 14 15 13 8 7 9 8 8 9 11 11 11 10
13 12 12 11 10 10 9 10 9 8 10 11 12 14 15 14 13 13 13 14 16 15 15 14 14 16 16 15 14 14 14 14 11 7 7 7 6 9 10 8 7 8
13 12 12 11 10 11 11 10 10 10 10 10 11 13 15 15 14 13 13 14 14 13 13 13 14 14 15 14 14 14 13 15 12 7 7 7 5 5 5 6 9 9
13 12 11 11 12 11 11 11 11 10 11 11 11 13 15 14 14 14 14 14 14 14 14 13 13 13 13 13 13 14 14 13 14 11 7 6 7 7 5 8 10 10
14 12 13 13 12 12 11 11 11 10 11 11 13 15 15 16 15 15 15 14 14 14 13 12 12 11 15 15 11 11 11 12 13 11 5 5 7 7 6 11 8 10
15 14 14 13 12 12 11 12 12 12 12 13 12 13 16 15 15 15 14 14 14 14 13 13 13 14 16 16 16 15 11 11 12 10 6 5 7 8 5 11 9 11
15 15 15 14 13 13 13 12 12 12 11 11 10 11 14 14 14 13 13 13 13 13 12 12 12 13 16 17 16 19 14 12 11 9 5 3 5 9 4 8 8 7
15 16 15 13 13 13 12 12 12 11 11 11 11 10 11 14 13 14 13 13 13 12 12 12 12 13 15 17 17 17 17 14 11 8 5 9 5 10 6 6 4 5
16 15 15 15 14 13 12 12 13 13 11 10 10 10 11 12 12 12 13 13 12 11 10 10 11 11 15 17 17 20 19 16 9 10 8 11 11 10 8 4 6 5
17 16 17 17 16 13 13 13 13 13 13 12 12 10 9 11 13 12 13 12 12 10 8 9 10 11 13 16 17 20 21 15 10 13 12 12 13 11 12 2 6 7
18 18 18 15 14 13 14 13 11 12 13 12 11 10 10 9 8 11 12 12 12 11 8 9 8 11 13 15 17 20 20 14 10 12 12 12 13 13 14 7 6 7
19 19 17 14 14 14 13 12 13 13 12 13 13 11 10 10 9 9 9 11 11 11 9 6 5 7 10 13 16 18 15 14 9 13 11 13 15 13 14 11 5 5
18 17 16 15 14 14 14 13 13 12 13 14 15 13 12 11 11 10 9 9 9 9 9 7 4 4 7 10 12 15 14 13 10 11 11 13 13 15 16 11 9 8
17 16 16 16 15 13 13 13 13 14 13 13 15 14 14 13 12 12 10 8 8 8 11 10 7 5 5 7 9 10 13 11 10 11 12 13 13 15 14 12 10 8
15 16 15 16 15 12 12 12 11 12 12 13 14 14 14 12 12 13 11 10 8 7 10 10 8 6 4 4 7 8 9 11 8 9 11 12 12 14 14 13 11 10
Wind_Speed
8 8 8 8 8 8 8 9 8 8 7 6 6 4 5 4 4 5 5 6 6 7 7 7 7 7 7 6 5 6 6 5 5 5 6 6 6 6 7 7 7 6
9 9 8 8 8 8 8 8 8 8 7 5 5 4 4 4 4 4 5 6 7 7 7 7 7 7 6 6 6 6 6 6 6 4 6 6 5 6 7 5 7 7
8 9 9 9 9 9 9 8 8 7 6 4 4 4 4 4 4 4 5 6 7 7 7 7 6 6 6 6 6 5 6 6 6 5 5 6 5 7 6 5 7 9
9 9 9 9 8 8 7 7 6 5 4 5 4 4 3 3 4 6 6 7 7 7 7 7 6 6 6 6 5 6 5 6 5 5 5 5 5 6 6 6 7 9
8 8 7 7 7 8 7 6 6 5 5 4 4 4 4 4 5 7 7 7 6 6 7 7 7 6 6 5 4 6 5 6 5 5 5 4 4 4 5 7 8 9
7 7 8 8 8 7 7 6 6 5 5 5 4 4 5 6 7 7 8 8 8 8 7 7 7 7 6 5 4 4 4 5 4 4 5 5 5 5 5 7 8 8
8 7 7 7 7 6 6 5 5 5 4 4 5 6 6 7 8 8 8 8 9 8 8 7 7 7 6 6 5 4 4 4 4 4 4 5 5 6 6 7 7 7
8 7 7 7 7 7 7 6 5 5 4 5 6 6 7 8 8 7 8 9 8 8 8 8 7 7 6 6 6 5 4 3 4 5 4 5 5 6 6 5 5 6
7 7 6 6 7 6 6 6 5 5 6 7 6 6 7 8 9 9 9 8 8 8 7 7 7 6 6 7 7 6 4 4 4 4 4 4 5 5 5 5 5 5
7 6 7 7 6 5 6 5 5 4 5 6 6 7 9 9 9 9 9 8 7 7 7 7 7 7 6 6 6 6 6 3 3 4 4 4 5 5 5 4 4 4
7 6 7 7 6 6 6 6 6 6 5 6 7 7 8 9 9 8 8 7 7 7 7 7 6 6 6 7 6 6 5 6 3 4 4 4 5 4 5 4 3 3
7 7 7 6 6 6 6 6 6 6 6 6 8 9 9 9 9 7 7 7 7 6 6 5 5 5 5 5 5 6 6 6 4 4 4 4 4 4 4 3 4 2
7 7 7 6 6 6 6 5 5 5 6 7 7 9 9 8 8 8 7 7 6 6 5 4 4 5 5 5 5 5 5 5 6 3 4 2 3 3 3 4 4 4
7 6 6 6 5 6 7 6 7 6 6 6 7 8 9 9 8 8 7 6 6 5 4 4 4 4 4 4 4 4 5 5 4 4 3 4 3 1 3 4 6 5
7 6 6 6 7 7 7 7 7 6 6 6 7 8 8 8 8 7 6 6 5 5 4 4 4 4 3 3 4 5 4 4 5 5 3 4 5 5 3 5 4 4
8 6 6 7 7 7 7 7 6 6 6 7 8 9 9 9 9 7 6 5 5 4 4 4 4 2 3 5 4 2 3 4 4 4 3 4 4 4 3 4 3 4
8 7 8 8 7 7 7 7 7 7 7 6 7 9 10 9 8 7 5 5 4 4 4 3 3 3 7 8 8 8 5 3 3 4 3 3 4 3 2 3 2 3
8 8 8 8 8 8 8 8 7 7 6 5 6 8 8 8 8 6 6 4 4 3 4 3 3 6 10 11 11 10 7 3 2 3 3 1 3 3 2 3 2 2
9 10 9 8 8 7 7 7 7 6 6 6 6 6 7 8 8 7 6 4 4 4 3 3 3 8 10 11 11 11 11 6 4 4 3 6 3 5 3 2 1 2
10 9 9 9 9 8 8 8 8 8 7 6 6 6 7 7 7 7 5 4 4 4 3 3 4 8 10 12 12 12 13 9 4 6 5 6 7 6 2 2 0 3
9 10 11 10 10 8 8 8 8 8 8 7 7 6 5 7 8 7 5 4 4 3 4 5 4 8 10 12 12 12 13 9 6 6 7 7 7 6 6 1 1 4
11 11 11 9 8 8 9 8 7 7 8 7 6 6 4 4 5 6 6 4 4 4 5 5 5 9 10 11 12 12 10 6 6 7 6 6 7 7 8 5 2 4
12 12 10 8 8 9 8 8 8 8 8 7 8 7 6 4 5 5 5 5 4 4 5 4 3 5 7 9 11 11 8 5 5 7 6 7 6 6 7 7 1 2
11 10 9 9 9 9 8 8 8 7 8 8 9 8 7 6 5 5 5 5 5 5 4 4 2 1 4 8 10 11 8 5 5 6 6 7 7 7 6 6 6 4
9 9 9 9 9 8 8 8 8 8 8 8 8 8 8 7 6 5 4 4 5 5 7 6 3 1 4 5 7 9 7 4 6 6 6 6 7 7 7 6 6 6
9 10 9 10 9 8 7 7 7 7 7 8 8 8 8 7 7 7 6 5 4 5 6 5 4 2 1 4 5 7 7 4 5 6 4 4 5 5 6 7 7 6
Wind_Direction
75 80 83 84 86 86 89 90 87 89 86 83 85 75 67 56 57 65 65 60 55 50 42 40 38 40 38 39 33 31 25 21 28 42 42 42 35 30 33 42 46 46
82 83 83 81 80 83 84 87 88 91 93 94 98 92 77 67 57 73 71 67 59 52 45 41 41 42 41 37 30 30 24 24 32 34 44 41 35 26 31 39 50 45
79 80 80 80 83 86 87 85 89 92 99 107 99 95 90 76 68 65 72 71 66 55 45 41 41 41 43 39 35 30 27 27 33 29 43 40 33 31 25 38 47 54
82 87 87 89 92 91 88 90 88 91 91 86 92 97 98 89 76 66 61 67 66 58 48 43 42 41 42 42 37 28 25 32 31 38 41 38 36 35 29 42 53 53
98 91 85 86 86 87 89 93 93 92 92 94 83 82 81 73 69 63 61 54 59 57 50 44 39 36 34 36 39 35 29 34 28 38 41 40 31 38 34 49 57 55
91 94 98 99 99 99 99 99 100 97 91 81 84 76 72 73 65 63 62 61 51 50 44 40 35 25 24 26 29 43 38 36 24 41 42 43 34 25 39 58 61 58
98 96 95 96 98 98 99 98 98 95 96 97 76 70 73 71 75 73 67 60 56 50 45 41 33 25 16 19 19 23 26 33 29 36 44 52 45 29 38 64 64 59
101 99 99 100 100 100 98 97 93 90 88 77 79 74 71 67 72 75 68 64 58 49 44 38 31 23 14 15 18 10 25 21 32 33 46 60 52 42 44 59 64 61
104 105 105 103 105 106 109 108 101 92 85 86 81 80 74 75 73 71 69 67 62 53 45 39 29 20 11 11 9 2 6 23 34 51 56 61 58 47 51 64 60 58
108 110 107 108 106 108 106 107 107 104 99 90 92 89 86 78 75 71 68 65 63 59 49 41 30 19 11 14 7 3 345 353 37 62 62 68 69 58 55 66 70 54
114 111 112 111 112 108 106 103 100 100 94 90 81 80 82 83 76 71 69 65 63 60 57 47 36 23 16 9 4 350 350 339 24 69 58 67 74 64 61 71 68 62
118 116 116 118 115 111 109 107 107 105 102 96 93 91 89 85 84 78 75 72 66 64 63 54 42 32 23 8 354 352 347 352 348 73 63 80 83 74 73 69 63 34
125 125 125 120 117 115 106 98 95 97 101 108 106 102 99 95 92 88 80 77 71 67 62 54 44 34 22 4 354 355 352 354 355 19 68 59 112 113 89 86 55 37
130 131 125 121 116 108 102 99 93 89 90 95 105 107 103 102 97 92 87 81 78 73 61 54 44 33 19 4 358 358 355 351 358 346 55 36 26 34 91 78 53 47
131 126 122 117 112 108 105 101 99 95 89 85 88 95 98 97 93 89 90 88 84 77 67 54 48 32 15 355 356 360 357 356 345 348 345 47 22 16 60 72 63 50
132 125 119 115 110 109 109 107 104 97 92 91 91 97 100 95 88 83 81 84 83 71 64 52 38 32 11 27 29 356 353 352 347 348 357 43 34 33 62 84 77 63
131 127 121 117 116 110 104 102 100 98 97 97 102 107 107 105 102 98 90 83 82 77 63 57 40 10 9 27 29 22 15 11 355 328 328 48 26 46 63 65 56 61
134 129 124 124 119 117 116 115 112 108 106 102 99 103 112 114 112 111 107 100 91 81 63 49 38 15 23 22 19 16 18 1 328 328 313 35 40 70 95 84 61 47
134 133 131 128 126 125 122 121 118 115 109 105 103 107 110 117 123 117 111 110 103 93 70 44 46 20 27 27 20 15 14 18 3 348 359 13 351 39 100 120 97 56
138 134 131 131 131 130 128 124 122 121 119 112 104 94 103 121 126 123 123 117 116 105 85 61 46 19 31 29 25 21 18 22 4 22 27 27 9 9 19 141 340 97
134 131 133 137 141 140 134 133 134 134 129 126 119 117 115 121 134 132 128 122 109 92 75 56 39 27 35 34 30 27 21 23 12 27 24 19 7 10 351 349 66 81
137 137 140 147 144 138 137 136 133 129 127 123 117 116 111 102 109 127 133 133 120 90 73 52 28 22 34 39 35 29 33 22 22 26 22 15 4 356 3 339 54 87
142 144 150 150 143 139 138 137 133 130 128 126 121 124 116 108 115 124 141 138 123 108 94 79 47 12 28 40 41 38 37 24 30 27 22 14 355 357 356 343 341 98
148 150 150 144 140 140 141 141 139 138 140 137 135 135 132 140 132 119 132 142 140 141 135 117 108 23 45 36 45 42 43 37 29 37 20 10 358 354 354 350 321 360
149 146 143 140 139 145 145 145 147 152 154 145 145 143 147 148 138 131 132 136 151 155 152 140 150 111 69 52 58 52 45 33 31 33 20 3 359 346 342 344 343 325
146 142 142 142 145 147 146 149 153 148 153 150 151 149 153 153 148 147 153 172 177 160 159 154 155 163 111 78 65 65 57 48 39 35 10 350 343 341 339 334 326 321